Location: Épeaux
(49.6155°N, 1.8224°E)
Time: 22:53:34
(UTC+00:00)

Daily predictions for brighter satellites

Satellite Brightness Start Highest point End
(mag) Time Altitude Azimuth Time Altitude Azimuth Time Altitude Azimuth
USA 267 3.4 17:32:14 10° ENE 17:38:49 79° SE 17:45:22 10° SW
MOS 1 Rocket 4.2 17:34:56 10° S 17:39:16 52° W 17:43:29 10° NNW
AQUARIUS 4.2 17:36:37 10° SSE 17:41:02 86° WSW 17:45:29 10° NNW
ARIANE 6 FM1 Upper Stage 4.0 17:38:47 10° NNW 17:41:54 21° NNE 17:45:00 10° ENE
Radarsat Rocket 4.3 17:36:34 10° SE 17:42:12 47° ENE 17:48:20 10° N
Cosmos 2242 Rocket 4.2 17:38:13 10° SSW 17:42:33 62° WNW 17:46:54 10° N
Meteor 1-11 4.2 17:37:44 10° S 17:43:22 77° E 17:49:07 10° NNE
Cosmos 2292 Rocket 3.6 17:40:38 10° SSW 17:43:29 53° WNW 17:46:42 10° N
CZ-2D R/B 2.9 17:43:00 10° S 17:46:02 72° WSW 17:49:05 10° NNW
Cosmos 2297 Rocket 2.6 17:41:03 10° S 17:46:22 44° ESE 17:51:43 10° NE
Cosmos 2016 Rocket 4.3 17:40:56 10° NNW 17:47:11 77° W 17:53:29 10° S
SAR-Lupe-5 4.0 17:51:11 10° NNE 17:53:41 82° ESE 17:56:06 10° SSW
NOSS 0 Rocket 4.3 17:48:34 10° NNW 17:54:48 74° WSW 18:01:01 10° SSE
Cosmos 1867 4.4 17:52:20 10° WSW 17:57:36 48° NW 18:02:54 10° NNE
Cosmos 158 Rocket 4.4 17:52:49 10° SW 17:57:37 61° WNW 18:02:28 10° NNE
Tiangong 0.3 17:55:48 10° SSW 17:57:37 14° SSE 17:59:25 10° SE
SeaSat 1 2.5 17:52:49 10° SSE 17:57:43 84° WSW 18:02:39 10° NNW
SJ-6B 3.9 17:56:19 10° ESE 17:58:45 18° ENE 18:01:12 10° NNE
Cosmos 2233 Rocket 4.2 17:54:44 10° NNW 18:01:02 80° W 18:07:20 10° S
IRS-P3 4.3 17:56:55 10° SSE 18:02:14 79° WSW 18:07:37 10° NNW
Meteor 2-1 Rocket 4.4 17:56:54 10° NNW 18:02:44 86° W 18:08:39 10° S
Cosmos 1125 Rocket 3.7 17:58:10 10° NNW 18:03:23 78° WSW 18:08:35 10° SSE
PSLV R/B 3.7 17:59:36 10° SE 18:03:31 44° ENE 18:07:24 10° N
Cosmos 2228 3.8 18:00:07 10° N 18:03:47 28° ENE 18:07:26 10° SE
Cosmos 1356 Rocket 4.3 18:00:28 10° NNW 18:04:18 50° W 18:08:09 10° S
Cosmos 2285 Rocket 4.1 17:58:04 10° NNW 18:04:32 88° ENE 18:10:56 10° SSE
COSMO-SKYMED 1 2.8 18:01:05 10° NNE 18:05:00 42° E 18:08:54 10° S
NOSS 3-3 (C) 3.8 17:59:56 10° SW 18:05:12 88° SE 18:11:35 10° NE
Meteor 1-31 Rocket 4.4 18:06:28 12° ENE 18:06:28 12° ENE 18:07:54 10° NE
Cosmos 1570 Rocket 4.2 18:02:05 10° S 18:07:08 49° ESE 18:12:11 10° NNE
CZ-2D R/B 3.3 18:04:25 10° SSE 18:08:18 67° ENE 18:12:20 10° N
Cosmos 2344 4.4 18:02:42 10° SSE 18:08:56 26° ESE 18:14:28 11° ENE
Cosmos 1455 Rocket 3.0 18:07:23 10° N 18:11:38 57° ENE 18:15:52 10° SSE
YAOGAN 1 2.5 18:08:13 10° SSE 18:12:29 85° ENE 18:16:46 10° NNW
Cosmos 2263 Rocket 3.4 18:09:21 10° SE 18:13:21 20° E 18:16:41 12° ENE
Cosmos 1607 4.4 18:07:19 10° SW 18:13:23 61° NW 18:19:33 10° NE
Cosmos 1975 Rocket 3.8 18:10:55 10° SSE 18:14:41 30° E 18:18:28 10° NNE
Cosmos 1980 3.8 18:09:21 10° NNW 18:15:02 81° WSW 18:20:40 10° SSE
USA 234 4.0 18:10:27 10° SE 18:16:51 55° SW 18:23:17 10° WNW
Cosmos 2237 Rocket 2.4 18:14:30 10° NNW 18:20:12 80° WSW 18:25:54 10° SSE
COSMOS 2428 4.4 18:15:14 10° NW 18:20:27 37° WSW 18:25:38 10° S
SJ-7 4.0 18:19:49 10° SSE 18:23:29 81° ENE 18:27:11 10° NNW
Cosmos 773 Rocket 4.2 18:18:29 10° S 18:23:34 52° ESE 18:28:42 10° NNE
Spot 4 Rocket 4.0 18:19:06 10° SSE 18:24:13 86° ENE 18:29:22 10° NNW
DNEPR-1 R/B 4.0 18:19:35 10° NW 18:24:22 66° NE 18:30:05 10° SE
NOAA 6 4.0 18:20:11 10° SSE 18:25:18 73° ENE 18:30:29 10° NNW
Okean 1 Rocket 4.0 18:23:43 10° NNW 18:27:59 50° W 18:32:12 10° S
ARIANE 5 R/B 4.4 18:24:24 10° SSW 18:28:59 33° W 18:33:34 10° NNW
Cosmos 2208 Rocket 4.1 18:24:25 10° S 18:29:30 54° ESE 18:34:42 10° NNE
Meteor 1-27 4.2 18:24:02 10° N 18:29:51 81° ENE 18:35:41 10° SSE
Terra 3.7 18:31:23 13° NE 18:31:23 13° NE 18:32:48 10° NNE
NOSS 3-3 (A) 4.2 18:26:26 10° WSW 18:31:41 61° NW 18:38:05 10° NE
CRYOSAT 2 4.3 18:28:55 10° N 18:33:46 61° E 18:38:36 10° S
Meteor 2-17 Rocket 4.4 18:30:06 10° S 18:36:03 61° E 18:42:00 10° NNE
Cosmos 44 Rocket 3.3 18:33:34 10° SSW 18:38:27 66° SE 18:42:35 15° NE
Cosmos 1346 Rocket 3.1 18:35:22 10° SSE 18:38:38 33° E 18:40:09 23° NE
Cosmos 2221 Rocket 4.5 18:35:55 10° SSW 18:40:17 53° WNW 18:44:44 10° N
Cosmos 1025 Rocket 4.5 18:37:19 10° SW 18:41:22 39° WNW 18:45:29 10° N
Cosmos 1602 2.8 18:39:32 10° S 18:42:15 56° E 18:43:15 33° NNE
Cosmos 1464 Rocket 4.0 18:36:14 10° N 18:42:36 68° ENE 18:48:50 10° SSE
CZ-4C R/B 2.9 18:38:41 10° WSW 18:43:00 42° NNW 18:48:32 10° NE
Cosmos 836 Rocket 4.5 18:39:50 10° SSW 18:45:06 90° SW 18:50:27 10° NNE
Cosmos 2227 Rocket 2.3 18:40:15 10° S 18:45:43 55° ESE 18:51:15 10° NE
SL-16 R/B 2.3 18:41:16 10° NNW 18:46:51 55° NE 18:50:49 19° SE
Helios 1A Rocket 4.0 18:49:53 20° SSE 18:49:53 20° SSE 18:51:09 10° SSE
NOSS 3-4 (A) 4.1 18:43:57 10° NW 18:50:39 72° SW 18:58:33 10° SSE
NOSS 3-4 (C) 4.1 18:44:13 10° NW 18:50:57 73° SW 18:58:52 10° SSE
Aureole 3 Rocket 4.4 18:49:39 10° NNW 18:53:07 33° W 18:56:00 10° SSW
Cosmos 2150 Rocket 4.0 18:49:06 10° NNW 18:54:17 80° WSW 18:59:24 10° SSE
Cosmos 2298 Rocket 4.1 18:53:01 10° NNW 18:58:20 79° WSW 19:03:37 10° SSE
Lacrosse 5 rocket 2.5 18:57:26 10° WNW 19:00:25 24° N 19:01:16 22° NNE
CZ-4 R/B 2.6 19:02:50 24° NNE 19:02:50 24° NNE 19:04:47 10° N
Resurs 01 Rocket 2.1 19:00:06 10° S 19:04:27 62° W 19:08:51 10° NNW
Cosmos 1782 2.5 19:03:04 10° N 19:06:40 85° W 19:09:32 15° S
BREEZE-M DEB (TANK) 4.3 19:02:39 10° SSW 19:06:47 39° SE 19:11:13 27° E
ATLAS 2AS CENTAUR R/B 4.2 19:02:29 10° NW 19:07:59 25° N 19:11:46 16° NE
CZ-4B R/B 3.8 19:12:00 34° ENE 19:12:00 34° ENE 19:16:38 10° N
CSL-04 Debris 4.1 19:12:12 27° SE 19:15:05 60° ENE 19:20:26 10° N
CZ-4B DEB 4.3 19:14:54 39° ESE 19:16:30 52° ENE 19:21:47 10° N
ERS-1 Rocket 3.8 19:20:01 32° NE 19:20:01 32° NE 19:23:35 10° N
CSL-04 Rocket 3.5 19:17:14 26° SSE 19:20:15 70° ENE 19:25:32 10° N
ARIANE 6 FM1 Upper Stage 2.3 19:17:28 10° NW 19:21:27 83° NE 19:21:31 82° ENE
USA 267 3.7 19:17:49 24° NE 19:21:42 55° NNW 19:28:02 10° W
RESURS DK-1 3.9 19:22:41 10° NNW 19:24:45 24° N 19:24:45 24° N
Cosmos 2297 Rocket 3.5 19:25:12 10° WSW 19:30:29 39° NW 19:35:47 10° NNE
Cosmos 2058 3.7 19:27:32 10° S 19:29:54 36° SSW 19:29:54 36° SSW
SJ-6B 4.0 19:28:42 10° SSW 19:31:54 36° W 19:35:07 10° NNW
SPOT 5 2.8 19:31:23 40° SSE 19:33:12 86° ENE 19:38:22 10° NNW
Cosmos 1943 3.4 19:28:02 10° NNW 19:33:35 50° NE 19:33:42 50° ENE
Tiangong 0.5 19:31:32 10° SW 19:32:34 15° SSW 19:32:34 15° SSW
Tsikada Rocket 3.8 19:29:19 10° S 19:35:23 65° E 19:41:31 10° NNE
Okean O Rocket 4.0 19:39:04 12° NNE 19:39:04 12° NNE 19:39:31 10° N
MOS 1 4.3 19:38:44 58° ENE 19:38:56 59° ENE 19:44:30 10° N
Meteor 1-31 Rocket 3.9 19:40:27 33° NNW 19:40:27 33° NNW 19:42:31 10° NNW
Cosmos 1544 Rocket 4.1 19:40:10 10° NNW 19:44:25 57° W 19:46:04 34° SSW
Cosmos 2219 3.5 19:41:09 10° SSW 19:45:34 50° SSE 19:45:34 50° SSE
ADEOS 3.8 19:53:49 58° NNE 19:53:49 58° NNE 19:58:08 10° NNW
Cosmos 2263 Rocket 2.2 19:50:55 10° SSW 19:56:36 77° WNW 19:58:28 44° NNE
Feng Yun 1-1 Rocket 4.4 20:06:22 60° SSW 20:07:22 75° WSW 20:13:19 10° NNW
Terra 3.3 20:10:00 27° N 20:10:00 27° N 20:12:12 10° N
Cosmos 1634 Rocket 4.0 20:01:12 10° NNW 20:07:33 79° W 20:09:11 52° S
PAYLOAD B 4.3 20:08:29 72° SW 20:08:50 75° WSW 20:14:28 10° NNW
Cosmos 972 Rocket 4.5 20:10:54 10° NNW 20:15:24 59° W 20:15:24 59° W
Cosmos 2344 3.5 20:14:51 10° SW 20:22:30 75° NW 20:24:33 50° NNE
Cosmos 2279 Rocket 4.2 20:22:16 10° NNW 20:27:38 67° NW 20:27:38 67° NW
Cosmos 2227 Rocket 3.7 20:25:01 10° WSW 20:30:03 32° NW 20:33:22 19° N
SL-16 R/B 3.9 20:25:51 10° NW 20:30:38 29° WSW 20:32:45 23° SW
CZ-4C R/B 4.1 20:28:39 10° WNW 20:32:49 23° N 20:33:37 22° N
CZ-4 R/B 4.2 20:37:50 14° NW 20:37:50 14° NW 20:38:32 10° NW
Lacrosse 5 rocket 4.4 20:34:36 10° NW 20:34:41 10° NW 20:34:41 10° NW
ATLAS 2AS CENTAUR R/B 3.9 20:54:38 10° NW 20:59:11 32° N 20:59:11 32° N
USA 267 4.1 21:05:09 44° NNW 21:05:09 44° NNW 21:10:20 10° WNW
